Home > Weather > Dessau-Rosslau > Past weeks

Flag for Germany Past Weather in Dessau-Rosslau, Saxony-Anhalt, Germany — Yesterday and Last 2 Weeks

Now
66 °F

Sunny.


Feels Like: 66 °F
Forecast: 61 / 85 °F
Wind: 6 mph from Southeast

Location: Leipzig-Schkeuditz

Current Time: Aug 24, 2016 at 9:02:20 AM

Latest Report: Aug 24, 2016 at 8:20 AM


Visibility: 10 mi

Pressure: 30.30 "Hg

Humidity: 88%

Dew Point: 63 °F

Location of Dessau-RosslauLocation

Past Weather in Dessau-Rosslau — Graph

°F

Dessau-Rosslau Temperature Yesterday

Maximum temperature yesterday: 79 °F (at 12:50 PM)
Minimum temperature yesterday: 59 °F (at 5:50 AM)
Average temperature yesterday: 70 °F

High & Low Weather Summary for the Past Weeks

 TemperatureHumidityPressure
High82 °F (Aug 13, 3:50 PM)100% (Aug 10, 8:20 AM)30.33 "Hg (Aug 10, 8:20 AM)
Low45 °F (Aug 11, 3:20 AM)33% (Aug 18, 4:20 PM)29.80 "Hg (Aug 18, 3:50 PM)
Average63 °F70%30.10 "Hg
* Reported Aug 9 7:20 AM — Aug 24 7:50 AM, Dessau-Rosslau, Weather by CustomWeather, © 2016

Note: Actual official high and low records may vary slightly from our data, if they occured in-between our weather recording intervals... More about our weather records

Advertising

Dessau-Rosslau Weather History for the Previous 24 Hours

Scroll right to see more
 ConditionsComfort  
Time TempWeatherWind HumidityBarometerVisibility
7:50 AM
Wed, Aug 24
64 °FPassing clouds.5 mph88%30.30 "HgN/A
7:20 AM63 °FSunny.6 mph94%30.30 "Hg10 mi
6:50 AM61 °FClear.6 mph94%30.30 "Hg10 mi
6:20 AM59 °FPassing clouds.7 mph100%30.30 "HgN/A
5:50 AM61 °FClear.5 mph94%30.30 "Hg10 mi
5:20 AM61 °FClear.7 mph94%30.30 "Hg10 mi
4:50 AM63 °FClear.7 mph94%30.30 "Hg10 mi
4:20 AM63 °FClear.8 mph94%30.30 "Hg10 mi
3:50 AM63 °FClear.6 mph94%30.30 "Hg10 mi
3:20 AM63 °FClear.6 mph88%30.30 "Hg10 mi
2:50 AM63 °FClear.6 mph88%30.30 "Hg10 mi
2:20 AM63 °FClear.6 mph94%30.30 "Hg10 mi
1:50 AM64 °FClear.6 mph88%30.30 "Hg10 mi
1:20 AM63 °FClear.7 mph88%30.30 "Hg10 mi
12:50 AM64 °FClear.7 mph88%30.33 "Hg10 mi
12:20 AM64 °FClear.8 mph88%30.33 "Hg10 mi
11:50 PM
Tue, Aug 23
68 °FClear.7 mph78%30.30 "Hg10 mi
11:20 PM68 °FClear.6 mph78%30.33 "Hg10 mi
10:50 PM66 °FClear.5 mph83%30.33 "Hg10 mi
10:20 PM68 °FClear.3 mph78%30.33 "Hg10 mi
9:50 PM68 °FClear.3 mph78%30.33 "Hg10 mi
9:20 PM70 °FClear.5 mph73%30.33 "Hg10 mi
8:50 PM70 °FSunny.5 mph73%30.30 "Hg10 mi
8:20 PM73 °FSunny.6 mph65%30.30 "Hg10 mi
7:50 PM75 °FSunny.6 mph61%30.30 "Hg10 mi
7:20 PM75 °FSunny.8 mph61%30.30 "Hg10 mi
6:50 PM75 °FPartly sunny.8 mph61%30.30 "HgN/A
6:20 PM77 °FPartly sunny.9 mph57%30.30 "HgN/A
5:50 PM77 °FBroken clouds.8 mph57%30.30 "HgN/A
5:20 PM77 °FBroken clouds.6 mph54%30.30 "HgN/A
4:50 PM77 °FBroken clouds.8 mph57%30.30 "HgN/A
4:20 PM77 °FBroken clouds.9 mph54%30.30 "HgN/A
3:50 PM77 °FBroken clouds.9 mph57%30.30 "HgN/A
3:20 PM77 °FPartly sunny.8 mph54%30.30 "HgN/A
2:50 PM77 °FPartly sunny.7 mph54%30.30 "HgN/A
2:20 PM77 °FPartly sunny.10 mph54%30.33 "HgN/A
1:50 PM79 °FPartly sunny.8 mph48%30.30 "HgN/A
1:20 PM77 °FBroken clouds.7 mph51%30.30 "HgN/A
12:50 PM79 °FBroken clouds.6 mph45%30.30 "HgN/A
12:20 PM77 °FPartly sunny.10 mph47%30.33 "HgN/A
11:50 AM75 °FScattered clouds.8 mph50%30.33 "HgN/A
11:20 AM75 °FScattered clouds.10 mph54%30.33 "HgN/A
10:50 AM75 °FScattered clouds.9 mph54%30.33 "HgN/A
10:20 AM72 °FPassing clouds.10 mph65%30.33 "HgN/A
9:50 AM72 °FSunny.9 mph65%30.33 "Hg10 mi
9:20 AM70 °FSunny.12 mph69%30.33 "Hg10 mi
Weather by CustomWeather, © 2016

See weather overviewHow to use our weather pages